Location: Newark
(52.3500°N, 175.9667°E)
Time: 09:23:47
(UTC+00:00)

Transit 4A - Pass Details

Date: 27 April 2021
Orbit: 870 x 974 km, 66.8° (Epoch: 07 May)

Event Time Altitude Azimuth Distance (km) Brightness Sun altitude
Rises 17:41:09 0° 320° (NW) 3,531 10.7 6.2°
Reaches altitude 10° 17:43:43 10° 323° (NW) 2,573 10.0 6.6°
Maximum altitude 17:49:37 65° 46° (NE) 964 8.5 7.5°
Drops below altitude 10° 17:55:25 10° 129° (SE) 2,518 10.8 8.4°
Sets 17:57:54 0° 132° (SE) 3,450 11.4 8.7°
